This is the latest recevied weather packets stored in our database for station/object T10BNorth. If no packets are shown the sender has not sent any weather packets the latest 1 day(s).
| Time | Temp. | Humidity | Pressure | Rain* | Wind** | Luminosity | Snow |
|---|---|---|---|---|---|---|---|
| 1777990119 | 17.22° C | 64% | 1006.7 hPa | 0 mm | 1.34 m/s, 181° | 577 W/m² | - |
| 1777990058 | 17.22° C | 62% | 1006.6 hPa | 0 mm | 1.34 m/s, 144° | 570 W/m² | - |
| 1777989996 | 17.22° C | 62% | 1006.6 hPa | 0 mm | 1.34 m/s, 157° | 573 W/m² | - |
| 1777989938 | 17.22° C | 61% | 1006.6 hPa | 0 mm | 1.79 m/s, 186° | 578 W/m² | - |
| 1777989878 | 17.22° C | 62% | 1006.6 hPa | 0 mm | 1.79 m/s, 173° | 571 W/m² | - |
| 1777989810 | 16.67° C | 62% | 1006.7 hPa | 0 mm | 1.79 m/s, 144° | 568 W/m² | - |
| 1777989752 | 16.67° C | 63% | 1006.7 hPa | 0 mm | 1.79 m/s, 215° | 573 W/m² | - |
| 1777989691 | 16.67° C | 63% | 1006.7 hPa | 0 mm | 1.79 m/s, 160° | 577 W/m² | - |
| 1777989631 | 16.67° C | 64% | 1006.7 hPa | 0 mm | 1.79 m/s, 149° | 584 W/m² | - |
| 1777989573 | 16.67° C | 63% | 1006.7 hPa | 0 mm | 1.79 m/s, 134° | 578 W/m² | - |
| 1777989508 | 16.67° C | 64% | 1006.8 hPa | 0 mm | 1.79 m/s, 196° | 578 W/m² | - |
| 1777989448 | 16.67° C | 63% | 1006.8 hPa | 0 mm | 1.79 m/s, 130° | 571 W/m² | - |
| 1777989388 | 16.67° C | 64% | 1006.8 hPa | 0 mm | 1.79 m/s, 157° | 582 W/m² | - |
| 1777989329 | 16.67° C | 63% | 1006.8 hPa | 0 mm | 1.79 m/s, 146° | 578 W/m² | - |
| 1777989270 | 16.67° C | 64% | 1006.7 hPa | 0 mm | 1.79 m/s, 126° | 591 W/m² | - |
| 1777989210 | 16.11° C | 65% | 1006.8 hPa | 0 mm | 1.79 m/s, 142° | 587 W/m² | - |
| 1777989148 | 16.11° C | 64% | 1006.8 hPa | 0 mm | 1.79 m/s, 163° | 584 W/m² | - |
| 1777989089 | 16.11° C | 63% | 1006.8 hPa | 0 mm | 1.79 m/s, 142° | 582 W/m² | - |
| 1777989028 | 16.11° C | 62% | 1006.8 hPa | 0 mm | 1.34 m/s, 138° | 594 W/m² | - |
| 1777988970 | 16.11° C | 63% | 1006.8 hPa | 0 mm | 1.34 m/s, 191° | 570 W/m² | - |
| 1777988908 | 16.11° C | 64% | 1006.8 hPa | 0 mm | 1.34 m/s, 168° | 596 W/m² | - |
| 1777988848 | 16.11° C | 63% | 1006.8 hPa | 0 mm | 1.34 m/s, 184° | 610 W/m² | - |
| 1777988788 | 16.11° C | 63% | 1006.8 hPa | 0 mm | 1.34 m/s, 170° | 617 W/m² | - |
| 1777988729 | 16.11° C | 63% | 1006.7 hPa | 0 mm | 1.34 m/s, 152° | 606 W/m² | - |
| 1777988670 | 16.11° C | 64% | 1006.8 hPa | 0 mm | 1.34 m/s, 178° | 598 W/m² | - |
* Rain latest hour (hover to see other rain measurements)
** Current wind speed in m/s (hover to see current wind gust speed)